This demonstration page uses our WeatherBlox Daily Observations layout. Learn more.

40.92945, -100.16068

Hourly Observations for March 10, 2017

Temp ( °F °C ) Dew Point ( °F °C ) Humidity (%) Winds ( mph kmh ) Pressure ( in mb ) Visibility ( mi km ) Precip ( " mm )
12:15 am 00:15 Cloudy 25 -3.7 20 -6.6 81 81 NNE 12 19 30.56 1035 10 16.0934 0 0
12:35 am 00:35 Mostly Cloudy 25 -3.7 20 -6.7 80 80 NNE 13 20 30.56 1035 10 16.0934 0 0
12:55 am 00:55 Cloudy 26 -3.3 20 -6.5 79 79 NNE 13 20 30.56 1035 10 16.0934 0 0
1:15 am 01:15 Cloudy 26 -3.3 20 -6.7 78 78 NNE 13 20 30.59 1036 10 16.0934 0 0
1:35 am 01:35 Cloudy 26 -3.3 20 -6.7 78 78 NNE 12 19 30.62 1037 10 16.0934 0 0
1:55 am 01:55 Cloudy 26 -3.5 19 -7 77 77 NNE 9 15 30.62 1037 10 16.0934 0 0
2:15 am 02:15 Cloudy 26 -3.5 19 -7 77 77 NNE 14 22 30.62 1037 10 16.0934 0 0
2:35 am 02:35 Cloudy 26 -3.6 19 -7 78 78 NNE 12 19 30.62 1037 10 16.0934 0 0
2:55 am 02:55 Cloudy 25 -3.9 19 -7.2 78 78 NNE 17 28 30.59 1036 10 16.0934 0 0
3:15 am 03:15 Cloudy 25 -3.9 19 -7.1 79 79 NNE 14 22 30.65 1038 10 16.0934 0 0
3:35 am 03:35 Cloudy 25 -4 19 -7.5 77 77 NNE 10 17 30.65 1038 10 16.0934 0 0
3:55 am 03:55 Cloudy 24 -4.2 19 -7.5 78 78 NE 10 17 30.65 1038 10 16.0934 0 0
4:15 am 04:15 Cloudy 24 -4.5 18 -7.7 79 79 NE 9 15 30.65 1038 10 16.0934 0 0
4:35 am 04:35 Cloudy 23 -4.8 18 -7.9 79 79 ENE 12 19 30.65 1038 10 16.0934 0 0
4:55 am 04:55 Cloudy 23 -5 18 -8 80 80 E 10 17 30.65 1038 10 16.0934 0 0
5:15 am 05:15 Cloudy 23 -5.2 17 -8.3 79 79 ENE 9 15 30.65 1038 10 16.0934 0 0
5:35 am 05:35 Cloudy 22 -5.3 17 -8.3 80 80 ENE 9 15 30.65 1038 10 16.0934 0 0
5:55 am 05:55 Cloudy 22 -5.5 17 -8.5 80 80 E 7 11 30.65 1038 10 16.0934 0 0
6:15 am 06:15 Cloudy 22 -5.5 17 -8.6 79 79 ENE 6 9 30.65 1038 10 16.0934 0 0
6:35 am 06:35 Cloudy 22 -5.7 16 -8.7 80 80 ENE 7 11 30.65 1038 10 16.0934 0 0
6:55 am 06:55 Cloudy 21 -6 16 -9 80 80 ENE 5 7 30.65 1038 10 16.0934 0 0
7:15 am 07:15 Cloudy 21 -6 16 -9 80 80 E 7 11 30.65 1038 10 16.0934 0 0
7:35 am 07:35 Cloudy 21 -6 16 -9 80 80 E 7 11 30.65 1038 10 16.0934 0 0
7:55 am 07:55 Cloudy 22 -5.6 16 -8.9 78 78 E 6 9 30.65 1038 10 16.0934 0 0
8:15 am 08:15 Partly Cloudy 22 -5.8 15 -9.2 77 77 ESE 7 11 30.68 1039 10 16.0934 0 0
8:35 am 08:35 Mostly Cloudy 21 -6 15 -9.5 77 77 E 8 13 30.68 1039 10 16.0934 0 0
8:55 am 08:55 Cloudy 21 -6 15 -9.5 77 77 E 7 11 30.68 1039 10 16.0934 0 0
9:15 am 09:15 Cloudy 22 -5.6 15 -9.4 75 75 E 7 11 30.65 1038 10 16.0934 0 0
9:35 am 09:35 Cloudy 22 -5.5 15 -9.2 75 75 E 7 11 30.68 1039 10 16.0934 0 0
9:55 am 09:55 Cloudy 23 -5.1 16 -8.9 75 75 ESE 9 15 30.65 1038 10 16.0934 0 0
10:15 am 10:15 Cloudy 23 -4.9 16 -8.8 74 74 ESE 9 15 30.65 1038 10 16.0934 0 0
10:35 am 10:35 Cloudy 24 -4.7 16 -8.9 73 73 ESE 9 15 30.65 1038 10 16.0934 0 0
10:55 am 10:55 Cloudy 25 -4 17 -8.6 71 71 SE 12 19 30.59 1036 10 16.0934 0 0
11:15 am 11:15 Cloudy 25 -3.8 17 -8.3 71 71 SE 13 20 30.59 1036 10 16.0934 0 0
11:35 am 11:35 Cloudy 26 -3.2 17 -8.5 67 67 SE 15 24 30.56 1035 10 16.0934 0 0
11:55 am 11:55 Cloudy 26 -3.1 17 -8.3 68 68 SE 12 19 30.56 1035 10 16.0934 0 0
12:15 pm 12:15 Cloudy 28 -2.5 18 -8 66 66 SE 12 19 30.56 1035 10 16.0934 0 0
12:35 pm 12:35 Cloudy 28 -2.5 17 -8.2 65 65 SE 9 15 30.56 1035 10 16.0934 0 0
12:55 pm 12:55 Cloudy 29 -1.7 18 -8 63 63 SSE 14 22 30.5 1033 10 16.0934 0 0
1:15 pm 13:15 Cloudy 29 -1.5 18 -8 62 62 SE 13 20 30.5 1033 10 16.0934 0 0
1:35 pm 13:35 Cloudy 31 -0.5 18 -7.8 58 58 SE 14 22 30.48 1032 10 16.0934 0 0
1:55 pm 13:55 Cloudy 32 0 18 -7.8 56 56 SSE 10 17 30.48 1032 10 16.0934 0 0
2:15 pm 14:15 Cloudy 33 0.3 18 -7.8 55 55 SSE 14 22 30.45 1031 10 16.0934 0 0
2:35 pm 14:35 Cloudy 34 1 18 -8 51 51 SE 12 19 30.39 1029 10 16.0934 0 0
2:55 pm 14:55 Cloudy 35 1.6 18 -8 49 49 S 13 20 30.39 1029 10 16.0934 0 0
3:15 pm 15:15 Mostly Cloudy 37 2.9 17 -8.1 45 45 SSE 14 22 30.36 1028 10 16.0934 0 0
3:35 pm 15:35 Mostly Cloudy 37 2.6 17 -8.2 45 45 SSE 15 24 30.36 1028 10 16.0934 0 0
3:55 pm 15:55 Cloudy 37 3 18 -8 45 45 SSE 15 24 30.33 1027 10 16.0934 0 0
4:15 pm 16:15 Cloudy 37 2.7 17 -8.2 45 45 SSE 16 26 30.36 1028 10 16.0934 0 0
4:35 pm 16:35 Cloudy 37 2.9 17 -8.5 43 43 SSE 18 30 30.3 1026 10 16.0934 0 0
4:55 pm 16:55 Cloudy 37 2.7 17 -8.5 44 44 SSE 16 26 30.3 1026 10 16.0934 0 0
5:15 pm 17:15 Cloudy 37 2.5 16 -9 43 43 SSE 15 24 30.33 1027 10 16.0934 0 0
5:35 pm 17:35 Cloudy 36 2.4 15 -9.4 42 42 SSE 14 22 30.33 1027 10 16.0934 0 0
5:55 pm 17:55 Cloudy 36 2.2 15 -9.4 42 42 SSE 13 20 30.33 1027 10 16.0934 0 0
6:15 pm 18:15 Cloudy 35 1.9 14 -10.2 41 41 SE 12 19 30.33 1027 10 16.0934 0 0
6:35 pm 18:35 Cloudy 35 1.8 14 -10 42 42 SSE 9 15 30.33 1027 10 16.0934 0 0
6:55 pm 18:55 Cloudy 34 1.3 13 -10.5 41 41 SE 13 20 30.33 1027 10 16.0934 0 0
7:15 pm 19:15 Cloudy 34 1 13 -10.7 42 42 ESE 14 22 30.33 1027 10 16.0934 0 0
7:35 pm 19:35 Cloudy 34 1 12 -11 41 41 ESE 13 20 30.36 1028 10 16.0934 0 0
7:55 pm 19:55 Cloudy 33 0.6 12 -11 42 42 ESE 13 20 30.36 1028 10 16.0934 0 0
8:15 pm 20:15 Cloudy 33 0.5 12 -11.1 42 42 SE 14 22 30.36 1028 10 16.0934 0 0
8:35 pm 20:35 Cloudy 32 0.2 12 -11.3 42 42 SE 14 22 30.36 1028 10 16.0934 0 0
8:55 pm 20:55 Cloudy 32 0.2 12 -11 43 43 ESE 12 19 30.36 1028 10 16.0934 0 0
9:15 pm 21:15 Cloudy 32 0.2 12 -11.1 43 43 ESE 10 17 30.42 1030 10 16.0934 0 0
9:35 pm 21:35 Cloudy 32 0.1 12 -11 43 43 ESE 12 19 30.42 1030 10 16.0934 0 0
9:55 pm 21:55 Cloudy 32 0.1 12 -11.1 43 43 SE 13 20 30.42 1030 10 16.0934 0 0
10:15 pm 22:15 Cloudy 32 0 12 -11 44 44 ESE 12 19 30.42 1030 10 16.0934 0 0
10:35 pm 22:35 Cloudy 32 0 12 -11.3 43 43 ESE 15 24 30.36 1028 10 16.0934 0 0
10:55 pm 22:55 Cloudy 28 -2.4 10 -12.2 47 47 E 13 20 30.42 1030 10 16.0934 0 0
11:15 pm 23:15 Cloudy 27 -3 9 -12.7 48 48 E 14 22 30.45 1031 10 16.0934 0 0
11:35 pm 23:35 Partly Cloudy 26 -3.3 9 -12.7 49 49 ESE 13 20 30.42 1030 10 16.0934 0 0
11:55 pm 23:55 Clear 26 -3.3 9 -12.6 49 49 ESE 13 20 30.42 1030 10 16.0934 0 0

Powered by AerisWeather